Cozumel, Mexico

2:10 PM on April 27, 2017 (GMT +0000)
Cozumel International

Weather History for MMCZ - September, 2013

Change the Weather History Date:

Sunday, September 15, 2013

  Actual Average Record
Temperature  
Mean Temperature 73 °F -  
Max Temperature 78 °F 89 °F 93 °F (1996)
Min Temperature 68 °F 76 °F 66 °F (2012)
Cooling Degree Days 8    
Growing Degree Days 23 (Base 50)    
Moisture  
Dew Point 72 °F    
Average Humidity 97    
Maximum Humidity 100    
Minimum Humidity 83    
Precipitation  
Precipitation 7.00 in - - ()
Sea Level Pressure  
Sea Level Pressure 29.89 in    
Wind  
Wind Speed 6 mph ()    
Max Wind Speed 25 mph    
Max Gust Speed 37 mph    
Visibility 6.3 miles    
Events Rain    
Averages and records for this station are not official NWS values.
T = Trace of Precipitation, MM = Missing Value Source: Averaged Metar Reports

Daily Weather History Graph

Daily Weather History Graph

Search for Another Location

Airport or City:

Trip Planner

Search our weather history database for the weather conditions in past years. The results will help you decide how hot, cold, wet, or windy it might be!

Date:

Astronomy

Sep. 15, 2013 Rise Set
Actual Time 6:35 AM CDT 6:50 PM CDT
Civil Twilight 6:12 AM CDT 7:12 PM CDT
Nautical Twilight 5:47 AM CDT 7:38 PM CDT
Astronomical Twilight 5:21 AM CDT 8:04 PM CDT
Moon 3:55 PM CDT (9/15) 2:38 AM CDT (9/15)
Length of Visible Light 12h 59m
Length of Day
12h 15m
Waxing Gibbous, 82% of the Moon is Illuminated
Sep 15
Waxing Gibbous
Sep 19
Full
Sep 26
Last Quarter
Oct 4
New
Oct 11
First Quarter

Hourly Weather History & Observations

Time (CDT) Temp. Dew Point Humidity Pressure Visibility Wind Dir Wind Speed Gust Speed Precip Events Conditions
12:53 AM 71.6 °F 71.6 °F 100% 29.86 in 7.0 mi East 3.5 mph - N/A   Overcast
1:45 AM 71.6 °F 71.6 °F 100% 29.87 in 7.0 mi East 3.5 mph - N/A   Overcast
2:51 AM 71.6 °F 71.6 °F 100% 29.84 in 7.0 mi Calm Calm - N/A   Mostly Cloudy
3:47 AM 71.6 °F 71.6 °F 100% 29.87 in 7.0 mi East 3.5 mph - N/A   Overcast
4:48 AM 71.6 °F 71.6 °F 100% 29.83 in 7.0 mi East 4.6 mph - N/A   Overcast
5:43 AM 71.6 °F 71.6 °F 100% 29.84 in 7.0 mi SE 4.6 mph - N/A   Overcast
6:50 AM 71.6 °F 71.6 °F 100% 29.86 in 6.0 mi SE 5.8 mph - N/A Rain Light Rain
7:45 AM 71.6 °F 71.6 °F 100% 29.89 in 6.0 mi ESE 6.9 mph - N/A   Overcast
8:45 AM 71.6 °F 71.6 °F 100% 29.91 in 6.0 mi ESE 4.6 mph - N/A   Overcast
9:45 AM 75.2 °F 73.4 °F 94% 29.95 in 6.0 mi ESE 8.1 mph - N/A   Overcast
10:43 AM 77.0 °F 73.4 °F 89% 29.94 in 6.0 mi ESE 13.8 mph - N/A   Overcast
11:41 AM 78.8 °F 75.2 °F 89% 29.92 in 6.0 mi ESE 11.5 mph 23.0 mph N/A   Overcast
11:51 AM 78.8 °F 73.4 °F 83% 29.93 in 1.5 mi ESE 25.3 mph 36.8 mph N/A Rain Rain Showers
12:04 PM 69.8 °F 69.8 °F 100% 29.92 in 4.0 mi East 13.8 mph - N/A Rain Light Rain
12:49 PM 75.2 °F 73.4 °F 94% 29.90 in 6.0 mi ESE 15.0 mph - N/A   Mostly Cloudy
1:43 PM 75.2 °F 71.6 °F 89% 29.89 in 7.0 mi East 17.3 mph 29.9 mph N/A   Overcast
2:31 PM - - N/A% - - East 17.3 mph 28.8 mph N/A Rain Light Rain
2:45 PM 71.6 °F 71.6 °F 100% 29.86 in 7.0 mi East 13.8 mph - N/A   Overcast
3:42 PM 77.0 °F 73.4 °F 89% 29.86 in 7.0 mi SE 12.7 mph 24.2 mph N/A   Overcast
4:43 PM 75.2 °F 73.4 °F 94% 29.84 in 7.0 mi SE 8.1 mph - N/A   Overcast
5:44 PM 73.4 °F 71.6 °F 94% 29.86 in 7.0 mi SE 5.8 mph - N/A   Overcast
6:43 PM 73.4 °F 71.6 °F 94% 29.85 in 7.0 mi Calm Calm - N/A   Overcast
7:46 PM 71.6 °F 71.6 °F 100% 29.89 in 7.0 mi Calm Calm - N/A   Overcast
8:44 PM 71.6 °F 71.6 °F 100% 29.90 in 7.0 mi Calm Calm - N/A Rain Light Rain
9:40 PM 68.0 °F 68.0 °F 100% 29.94 in 7.0 mi ESE 4.6 mph - N/A   Overcast
10:42 PM 69.8 °F 69.8 °F 100% 29.93 in 5.0 mi East 4.6 mph - N/A Rain Light Rain
11:40 PM 69.8 °F 69.8 °F 100% 29.91 in 6.0 mi ESE 8.1 mph - N/A   Overcast